Regional Weather Roundup
Issued by NWS

Home | Current Version | Previous Version | Graphics & Text | Print | Product List | Glossary Off
Versions: 1 2 3 4 5 6 7 8 9 10 11 12 13 14 15 16 17 18 19 20 21 22 23 24 25 26 27 28 29 30 31 32 33 34 35 36 37 38 39 40 41 42 43 44 45 46 47 48 49 50

432
ASUS43 KTOP 310408
RWRKS

WEATHER ROUNDUP FOR KANSAS
NATIONAL WEATHER SERVICE GOODLAND KS
1100 PM CDT SAT JUL 30 2016

NOTE:  "FAIR" INDICATES FEW OR NO CLOUDS BELOW 12,000 FEET WITH NO
SIGNIFICANT WEATHER AND/OR OBSTRUCTIONS TO VISIBILITY.

KSZ001>006-013>018-027>032-041>047-310500-
NORTHWEST KANSAS

CITY           SKY/WX    TMP DP  RH WIND       PRES   REMARKS
GOODLAND       PTCLDY    75  65  70 SE12      29.93R
HAYS           CLEAR     79  64  61 SE13      29.92R
HILL CITY      CLEAR     79  70  74 SE9       29.93R
RUSSELL        CLEAR     76  67  73 SE14      29.92R
$$

KSZ061>065-074>080-084>089-310500-
SOUTHWEST KANSAS

CITY           SKY/WX    TMP DP  RH WIND       PRES   REMARKS
DODGE CITY     CLEAR     79  64  60 SE14      29.93R
ELKHART          N/A     80  55  42 SW12        N/A
GARDEN CITY    CLEAR     77  65  66 SE14      29.90R
GREAT BEND     CLEAR     77  66  69 SE12      29.93R
LIBERAL        CLEAR     81  61  50 S14       29.93S
PRATT          CLEAR     76  69  80 SE10      29.94S
$$

KSZ066>073-081>083-090>101-310500-
SOUTHEAST KANSAS

CITY           SKY/WX    TMP DP  RH WIND       PRES   REMARKS
CHANUTE        CLEAR     75  71  87 SE5       29.97R
COFFEYVILLE    CLEAR     75  71  87 SE6       29.97R
HUTCHINSON     CLEAR     78  71  79 SE8       29.94R
MEDICINE LODGE   N/A     79  71  76 SE8       29.93R
NEWTON         CLEAR     75  70  84 SE9       29.97R
PARSONS        CLEAR     76  71  85 SE5       29.98R
WICHITA INTL   CLEAR     79  70  74 SE9       29.94R
WICHITA JABRA  CLEAR     76  69  79 SE8       29.96R
WICHITA MCCONL CLEAR     77  71  79 SE9       29.95R
WINFIELD       CLEAR     77  70  79 SE9       29.96R
$$

KSZ007>012-019>026-033>040-048>060-102>105-310500-
NORTHEAST KANSAS

CITY           SKY/WX    TMP DP  RH WIND       PRES   REMARKS
CONCORDIA      CLEAR     73  69  87 SE6       29.95R
EMPORIA        CLEAR     75  71  87 SE6       29.97R
LAWRENCE       PTCLDY    72  69  90 SE7       29.98R
MANHATTAN      CLEAR     75  70  84 CALM      29.96R
MARYSVILLE     PTCLDY    72  68  88 SE8       29.97S
OLATHE IND     CLEAR     75  69  81 SE7       30.00R
OLATHE EXE     CLEAR     74  67  78 SE5       30.00R
SALINA         CLEAR     79  69  71 SE8       29.94R
TOPEKA BILLARD PTCLDY    75  71  87 E5        29.97R
TOPEKA FORBES  PTCLDY    77  71  82 SE7       29.97R
$$




USA.gov is the U.S. government's official web portal to all federal, state and local government web resources and services.